Home   Weather   Sunnyvale   Past weeks
Flag for USA

Past Weather in Sunnyvale, California, USA — Yesterday and Last 2 Weeks

Now
59 °F

Broken clouds.


Feels Like: 57 °F
Forecast: 60 / 47 °F
Wind: 13 mph from Northwest

Location: San Jose International Airport

Current Time: Jan 26, 2020 at 3:50:58 pm

Latest Report: Jan 26, 2020 at 2:53 pm


Visibility: 10 mi

Pressure: 30.25 "Hg

Humidity: 64%

Dew Point: 47 °F

Location of SunnyvaleLocation

Past Weather in Sunnyvale — Graph

°F

Sunnyvale Temperature Yesterday

Maximum temperature yesterday: 65 °F (at 1:53 pm)
Minimum temperature yesterday: 52 °F (at 2:36 am)
Average temperature yesterday: 58 °F

High & Low Weather Summary for the Past Weeks

 TemperatureHumidityPressure
High65 °F (Jan 24, 1:53 pm)100% (Jan 24, 7:21 am)30.37 "Hg (Jan 24, 7:21 am)
Low36 °F (Jan 15, 5:53 am)49% (Jan 17, 1:53 pm)29.73 "Hg (Jan 16, 8:53 am)
Average50 °F79%30.16 "Hg
* Reported Jan 11 1:53 pm — Jan 26 1:53 pm, Sunnyvale. Weather by CustomWeather, © 2020

Note: Actual official high and low records may vary slightly from our data, if they occured in-between our weather recording intervals... More about our weather records

Sunnyvale Weather History for the Previous 24 Hours

Scroll right to see more
 ConditionsComfort  
Time TempWeatherWind HumidityBarometerVisibility
1:53 pm
Sun, Jan 26
61 °FBroken clouds.14 mph67%30.24 "Hg10 mi
12:53 pm60 °FBroken clouds.12 mph69%30.26 "Hg10 mi
11:53 am60 °FBroken clouds.14 mph75%30.27 "Hg10 mi
11:21 am59 °FBroken clouds.10 mph81%30.26 "Hg10 mi
10:53 am59 °FBroken clouds.9 mph81%30.25 "Hg10 mi
10:31 am58 °FBroken clouds.9 mph87%30.25 "Hg10 mi
9:53 am58 °FBroken clouds.5 mph90%30.23 "Hg10 mi
9:24 am58 °FBroken clouds.3 mph87%30.22 "Hg8 mi
8:58 am57 °FBroken clouds.5 mph90%30.21 "Hg8 mi
7:53 am57 °FBroken clouds.No wind93%30.18 "Hg10 mi
6:53 am55 °FPartly cloudy.5 mph93%30.16 "Hg10 mi
5:53 am56 °FLight rain. Partly cloudy.6 mph93%30.14 "Hg10 mi
5:37 am56 °FLight rain. Partly cloudy.3 mph93%30.15 "Hg10 mi
5:16 am56 °FLight rain. Mostly cloudy.3 mph93%30.15 "Hg8 mi
4:53 am56 °FHeavy rain. Fog.7 mph90%30.14 "Hg3 mi
4:37 am57 °FRain. Fog.8 mph90%30.14 "Hg6 mi
3:53 am57 °FOvercast.No wind93%30.13 "Hg10 mi
2:53 am57 °FMostly cloudy.3 mph93%30.12 "Hg10 mi
1:53 am57 °FPartly cloudy.7 mph93%30.11 "Hg9 mi
12:53 am58 °FMostly cloudy.No wind90%30.13 "Hg10 mi
11:53 pm
Sat, Jan 25
59 °FMostly cloudy.5 mph84%30.13 "Hg4 mi
11:39 pm59 °FLow clouds.3 mph84%30.14 "Hg7 mi
10:53 pm60 °FMostly cloudy.5 mph80%30.13 "Hg10 mi
10:12 pm60 °FMostly cloudy.5 mph80%30.13 "Hg10 mi
9:53 pm60 °FMostly cloudy.5 mph80%30.12 "Hg10 mi
8:53 pm60 °FMostly cloudy.No wind80%30.11 "Hg10 mi
7:53 pm60 °FMostly cloudy.3 mph80%30.11 "Hg10 mi
6:53 pm60 °FMostly cloudy.7 mph80%30.10 "Hg10 mi
5:53 pm60 °FPassing clouds.8 mph80%30.09 "Hg10 mi
4:53 pm61 °FBroken clouds.8 mph75%30.08 "Hg10 mi
3:53 pm64 °FBroken clouds.3 mph70%30.06 "Hg10 mi
Weather by CustomWeather, © 2020

See weather overview

Advertising